FW6550 Weather Reports


time (UTC)temp
F
wind
direction
speed
knots
gust
knots
rain 1hr
in
rain 24hr
in
rain mn
in
humidity
%
barometer
mb
20260503200035 73 262 2.6 8.7 0.00 0.00 0.00 40 1020.0
20260503194534 74 360 2.6 7.8 0.00 0.00 0.00 40 1020.3
20260503193033 73 348 0.9 4.3 0.00 0.00 0.00 38 1020.4
20260503191530 74 22 1.7 9.6 0.00 0.00 0.00 39 1020.8
20260503190038 72 323 1.7 8.7 0.00 0.00 0.00 37 1021.1
20260503184533 72 11 1.7 7.0 0.00 0.00 0.00 41 1021.3
20260503183033 72 314 1.7 5.2 0.00 0.00 0.00 46 1021.5
20260503181537 72 329 1.7 8.7 0.00 0.00 0.00 42 1021.8
20260503180040 71 0 1.7 7.8 0.00 0.00 0.00 43 1021.9
20260503174534 72 322 1.7 5.2 0.00 0.00 0.00 41 1022.1
20260503173050 72 34 2.6 7.8 0.00 0.00 0.00 43 1022.4
20260503171537 72 278 1.7 6.1 0.00 0.00 0.00 46 1022.5
20260503081535 52 0 0.0 0.9 0.00 0.00 0.00 73 1020.2
20260503071531 53 28 0.0 4.3 0.00 0.01 0.00 70 1019.9
20260503054536 49 0 0.0 0.0 0.00 0.01 0.00 81 1019.5
20260503053039 49 0 0.0 0.0 0.00 0.01 0.00 80 1019.4
20260503051531 50 0 0.0 0.0 0.00 0.01 0.00 81 1019.3
20260503050035 50 0 0.0 0.0 0.00 0.01 0.00 80 1019.1
20260503044534 50 0 0.0 0.0 0.00 0.01 0.01 79 1018.9
20260503043032 51 0 0.0 0.0 0.00 0.01 0.01 78 1018.9
20260503041533 51 0 0.0 0.0 0.00 0.01 0.01 77 1018.7
20260503040037 52 0 0.0 0.0 0.00 0.01 0.01 76 1018.6
20260503034535 52 0 0.0 0.0 0.00 0.01 0.01 74 1018.5
20260503033051 53 0 0.0 0.0 0.00 0.01 0.01 74 1018.4
20260503031536 53 0 0.0 0.0 0.00 0.01 0.01 73 1018.5
20260503030033 54 0 0.0 0.0 0.00 0.01 0.01 70 1018.4
20260503024532 54 0 0.0 0.0 0.00 0.01 0.01 69 1018.3
20260503023044 55 0 0.0 0.0 0.00 0.01 0.01 67 1018.2
20260503021535 56 0 0.0 0.0 0.00 0.01 0.01 65 1018.2
20260503020034 57 0 0.0 0.0 0.00 0.01 0.01 63 1018.1
20260503014533 58 0 0.0 0.0 0.00 0.02 0.01 60 1018.0
20260503013033 60 0 0.0 0.0 0.00 0.02 0.01 57 1017.7
20260503011533 61 0 0.0 0.0 0.00 0.02 0.01 55 1017.5
20260503010037 62 0 0.0 0.0 0.00 0.02 0.01 51 1017.3
20260503004556 64 0 0.0 0.0 0.00 0.03 0.01 47 1017.2
20260503003033 65 0 0.0 0.0 0.00 0.03 0.01 45 1017.1
20260503001532 66 0 0.0 1.7 0.00 0.03 0.01 42 1016.8
20260503000040 67 0 0.0 2.6 0.00 0.03 0.01 40 1016.6
20260502234536 68 347 0.9 3.5 0.00 0.03 0.01 38 1016.3
20260502233034 69 321 1.7 7.0 0.00 0.03 0.01 37 1016.3
20260502231537 69 352 0.9 8.7 0.00 0.03 0.01 36 1016.2
20260502230033 69 315 1.7 6.1 0.00 0.03 0.01 36 1016.2
20260502224533 70 325 2.6 8.7 0.00 0.03 0.01 34 1016.2
20260502223033 70 360 1.7 7.8 0.00 0.03 0.01 35 1016.1
20260502221532 70 352 0.9 7.0 0.00 0.03 0.01 35 1016.1
20260502220035 70 325 1.7 7.8 0.00 0.03 0.01 36 1016.0
20260502214534 70 294 1.7 7.8 0.00 0.03 0.01 38 1015.7
20260502213035 70 0 0.9 7.0 0.00 0.03 0.01 37 1015.9
20260502211538 70 328 2.6 7.8 0.00 0.03 0.01 37 1016.0
20260502210033 71 298 2.6 5.2 0.00 0.03 0.01 35 1016.1
20260502204532 71 352 1.7 8.7 0.00 0.03 0.01 34 1016.3
20260502203033 71 46 2.6 10.4 0.00 0.03 0.01 35 1016.3
20260502201531 72 281 2.6 8.7 0.00 0.03 0.01 35 1016.4